Tracking 28052 objects as of 22-Sep-2023
HD Live streaming from Space Station
objects crossing your sky now

OBJECT Z

Track OBJECT Z now!
10-day predictions


NORAD ID: 57189
Int'l Code: 2023-091Z
Perigee: 548.7 km
Apogee: 565.9 km
Inclination: 97.7 °
Period: 95.7 minutes
Semi major axis: 6928 km
RCS: Unknown
Launch date: June 27, 2023
Source: (TBD)
Launch site: VOSTOCHNY COSMODROME (VOSTO)
Your satellite tracking list
Your tracking list is empty




NASA's NSSDC Master Catalog

Two Line Element Set (TLE):
1 57189U 23091Z   23265.11526302  .00006411  00000-0  44989-3 0  9992
2 57189  97.6570 315.1658 0012422 306.4211  53.5869 15.05450104 13019
Source of the keplerian elements: AFSPC